Back to catalog

STARLINK-35959

AliveCommunicationsVLEO
NORAD 66827·PAYLOAD·🇺🇸 United States

Launched Dec 2, 2025 from Vandenberg Space Force Base

Loading…

Next Passes (next 24 hours)

TLE

FreshSource: CelesTrak SupGP

Epoch: Sep 14, 2026, 15:10 UTC

1 66827C 25280G   26257.63243056 -.00004407  00000+0 -36945-3 0  2570
2 66827  70.0006 218.1007 0003010 262.4813 209.0648 14.98321110    13

Track STARLINK-35959 in real time with AllMySat

Download on the App Store